DateTimeUTC,F1_A11,F1_S11,BsB_S11,BsG_S11,BsR_S11,BbsB_S11,BbsG_S11,BbsR_S11,BaB_A11,BaG_A11,BaR_A11,Tu_S11,T_S11,Uu_S11,U_S11,P_S11,T1_A11
2021-03-25T19:00:00Z,00000200,21000000,,,,,,,-000.20,-000.18,0000.11,17.0,24.4,,00.0,0630.5,31.0
2021-03-25T19:01:00Z,00000200,21000000,,,,,,,0000.07,-000.03,-000.36,16.9,24.4,,00.0,0630.5,30.9
2021-03-25T19:02:00Z,00000200,21000000,,,,,,,-000.29,-000.19,0000.06,16.9,24.4,,00.0,0630.5,30.9
2021-03-25T19:03:00Z,00000200,61000000,,,,,,,0000.97,0000.86,0000.74,16.9,24.4,,00.0,0630.5,30.9
2021-03-25T19:04:00Z,00000200,41000000,0002.44,0001.79,0001.13,0000.55,0000.12,-000.08,0001.00,0000.87,0000.45,16.9,24.2,,00.0,0631.4,30.9
2021-03-25T19:05:00Z,00000200,01000000,0002.14,0002.04,0001.12,0000.97,0000.41,0000.20,0000.85,0001.26,0000.96,16.9,24.1,,00.0,0631.4,30.9
2021-03-25T19:06:00Z,00000200,01000000,0002.40,0002.05,0001.12,0000.50,0000.44,0000.20,0001.20,0000.97,0000.52,16.8,24.1,,00.0,0631.5,30.9
2021-03-25T19:07:00Z,00000200,01000000,0002.40,0001.32,0000.64,0001.09,0000.26,0000.02,0000.71,0000.69,0000.92,16.8,24.0,,00.0,0631.5,30.8
2021-03-25T19:08:00Z,00000200,01000000,0001.90,0001.16,0000.52,0000.40,0000.38,0000.04,0001.18,0000.77,0000.54,16.8,24.0,,00.0,0631.5,30.9
2021-03-25T19:09:00Z,00000200,01000000,0002.92,0002.04,0001.22,0000.83,0000.57,0000.20,0001.25,0001.12,0001.16,16.9,24.0,,00.0,0631.5,30.9
2021-03-25T19:10:00Z,00000200,01000000,0002.56,0001.95,0001.00,0000.57,0000.16,0000.32,0001.20,0001.44,0000.79,16.9,24.0,,00.0,0631.5,30.9
2021-03-25T19:11:00Z,00000200,01000000,0002.32,0001.58,0000.98,0000.68,0000.24,0000.24,0000.39,0000.40,0000.49,17.0,24.0,,00.0,0631.5,30.9
2021-03-25T19:12:00Z,00000200,01000000,0002.98,0001.76,0000.82,0000.59,0000.30,0000.09,0001.14,0000.86,0000.70,17.1,24.1,,00.0,0631.5,31.0
2021-03-25T19:13:00Z,00000200,01000000,0002.33,0002.15,0000.80,0000.73,0000.19,0000.15,0001.08,0001.05,0000.60,17.1,24.1,,00.0,0631.5,31.0
2021-03-25T19:14:00Z,00000200,01000000,0002.99,0001.96,0000.98,0001.01,0000.33,0000.16,0001.18,0000.78,0000.76,17.2,24.1,,00.0,0631.5,31.0
2021-03-25T19:15:00Z,00000200,01000000,0002.84,0002.22,0001.42,0000.65,0000.45,0000.39,0001.29,0001.38,0001.40,17.2,24.1,,00.0,0631.5,31.0
2021-03-25T19:16:00Z,00000200,01000000,0002.68,0002.12,0001.23,0000.79,0000.25,0000.18,0001.60,0001.51,0000.62,17.1,24.1,,00.0,0631.5,31.0
2021-03-25T19:17:00Z,00000200,01000000,0002.87,0002.00,0001.20,0000.45,0000.39,0000.23,0001.31,0001.26,0001.15,17.1,24.1,,00.0,0631.5,30.9
2021-03-25T19:18:00Z,00000200,01000000,0003.99,0002.36,0001.39,0000.62,0000.52,0000.29,0002.17,0002.20,0001.55,17.0,24.1,,00.0,0631.5,30.9
2021-03-25T19:19:00Z,00000200,01000000,0003.85,0002.75,0001.56,0001.37,0000.49,0000.35,0002.09,0001.62,0001.40,16.9,24.0,,00.0,0631.5,30.9
2021-03-25T19:20:00Z,00000200,01000000,0003.12,0002.51,0001.43,0000.73,0000.24,0000.33,0001.67,0001.41,0001.42,16.8,24.0,,00.0,0631.5,30.9
2021-03-25T19:21:00Z,00000200,01000000,0003.71,0002.57,0001.22,0000.44,0000.25,0000.20,0001.84,0001.70,0000.95,16.8,23.9,,00.0,0631.5,30.9
2021-03-25T19:22:00Z,00000200,01000000,0003.06,0002.49,0001.16,0000.65,0000.31,0000.15,0001.55,0001.78,0001.09,16.7,23.9,,00.0,0631.5,30.9
2021-03-25T19:23:00Z,00000200,01000000,0003.03,0002.76,0001.40,0000.97,0000.39,0000.27,0001.72,0001.40,0001.57,16.7,23.9,,00.0,0631.5,30.9
2021-03-25T19:24:00Z,00000200,01000000,0004.11,0002.88,0001.55,0000.95,0000.50,0000.17,0002.79,0002.50,0002.01,16.8,23.9,,00.0,0631.5,30.9
2021-03-25T19:25:00Z,00000200,01000000,0004.07,0003.04,0001.53,0001.22,0000.53,0000.23,0002.38,0002.19,0001.62,16.9,23.9,,00.0,0631.5,30.9
2021-03-25T19:26:00Z,00000200,01000000,0003.71,0002.91,0001.68,0001.25,0000.44,0000.26,0002.22,0002.32,0001.59,16.9,23.9,,00.0,0631.5,30.9
2021-03-25T19:27:00Z,00000200,01000000,0005.22,0003.25,0001.86,0000.96,0000.37,0000.32,0003.05,0002.37,0001.98,17.0,24.0,,00.0,0631.5,30.9
2021-03-25T19:28:00Z,00000200,01000000,0004.63,0003.25,0001.94,0000.81,0000.73,0000.19,0002.89,0002.73,0002.41,17.0,24.0,,00.0,0631.5,30.9
2021-03-25T19:29:00Z,00000200,01000000,0003.71,0003.24,0001.66,0001.04,0000.43,0000.22,0002.49,0002.30,0001.83,17.1,24.0,,00.0,0631.5,30.9
2021-03-25T19:30:00Z,00000200,01000000,0003.06,0002.41,0001.38,0000.61,0000.36,0000.36,0001.19,0001.35,0000.94,17.0,24.0,,00.0,0631.5,30.9
2021-03-25T19:31:00Z,00000200,01000000,0004.50,0002.58,0001.48,0000.87,0000.59,0000.09,0002.46,0002.23,0001.21,17.0,24.0,,00.0,0631.5,30.9
2021-03-25T19:32:00Z,00000200,01000000,0003.77,0002.50,0001.22,0001.06,0000.55,0000.19,0001.87,0001.39,0001.46,16.9,23.9,,00.0,0631.5,30.9
2021-03-25T19:33:00Z,00000200,01000000,0003.79,0002.63,0001.28,0000.93,0000.46,0000.27,0001.95,0002.22,0001.79,16.8,23.9,,00.0,0631.5,30.9
2021-03-25T19:34:00Z,00000200,01000000,0003.78,0002.72,0001.60,0000.61,0000.60,0000.28,0002.02,0001.50,0000.99,16.7,23.9,,00.0,0631.5,30.9
2021-03-25T19:35:00Z,00000200,01000000,0003.51,0003.00,0001.75,0001.20,0000.65,0000.40,0002.45,0002.61,0002.09,16.7,23.8,,00.0,0631.5,30.9
2021-03-25T19:36:00Z,00000200,01000000,0004.23,0002.73,0001.64,0001.14,0000.51,0000.46,0002.74,0001.85,0001.52,16.6,23.8,,00.0,0631.5,30.9
2021-03-25T19:37:00Z,00000200,01000000,0004.74,0002.99,0001.72,0000.76,0000.42,0000.46,0002.58,0002.95,0002.21,16.6,23.8,,00.0,0631.5,30.8
2021-03-25T19:38:00Z,00000200,01000000,0004.64,0003.12,0001.32,0001.19,0000.32,0000.14,0002.72,0002.18,0001.42,16.6,23.7,,00.0,0631.5,30.9
2021-03-25T19:39:00Z,00000200,01000000,0004.77,0003.23,0001.50,0000.77,0000.62,0000.22,0002.78,0002.65,0002.42,16.7,23.8,,00.0,0631.5,30.9
2021-03-25T19:40:00Z,00000200,01000000,0004.97,0003.28,0001.37,0000.74,0000.37,0000.34,0002.75,0002.57,0002.06,16.7,23.8,,00.0,0631.5,30.9
2021-03-25T19:41:00Z,00000200,01000000,0005.04,0003.39,0001.88,0000.96,0000.56,0000.21,0002.88,0002.99,0002.29,16.8,23.8,,00.0,0631.5,30.9
2021-03-25T19:42:00Z,00000200,01000000,0004.46,0002.95,0001.75,0001.16,0000.14,0000.42,0003.42,0002.53,0002.20,16.9,23.8,,00.0,0631.5,30.9
2021-03-25T19:43:00Z,00000200,01000000,0004.53,0003.54,0001.66,0001.24,0000.67,0000.16,0002.63,0002.85,0001.42,16.9,23.9,,00.0,0631.5,30.9
2021-03-25T19:44:00Z,00000200,01000000,0004.54,0003.21,0002.00,0000.87,0000.54,0000.28,0002.81,0002.31,0002.66,17.0,23.9,,00.0,0631.5,31.0
2021-03-25T19:45:00Z,00000200,01000000,0005.16,0003.43,0001.86,0001.23,0000.46,0000.37,0002.99,0003.01,0001.95,17.0,23.9,,00.0,0631.5,30.9
2021-03-25T19:46:00Z,00000200,01000000,0004.51,0002.92,0001.72,0001.44,0000.27,0000.44,0003.08,0002.66,0002.08,16.9,23.9,,00.0,0631.5,30.9
2021-03-25T19:47:00Z,00000200,01000000,0004.14,0003.29,0001.72,0000.68,0000.46,0000.05,0003.15,0003.04,0001.89,16.9,23.9,,00.0,0631.5,30.9
2021-03-25T19:48:00Z,00000200,01000000,0004.36,0003.51,0001.94,0001.05,0000.50,0000.43,0002.78,0002.44,0002.04,16.8,23.8,,00.0,0631.5,30.9
2021-03-25T19:49:00Z,00000200,01000000,0004.73,0003.20,0001.89,0001.10,0000.66,0000.40,0002.54,0002.32,0001.93,16.7,23.8,,00.0,0631.5,30.9
2021-03-25T19:50:00Z,00000200,01000000,0004.55,0003.11,0001.55,0001.20,0000.29,0000.39,0001.75,0001.57,0000.91,16.7,23.8,,00.0,0631.5,30.9
2021-03-25T19:51:00Z,00000200,01000000,0004.85,0003.19,0001.72,0000.76,0000.49,0000.53,0003.05,0002.89,0002.50,16.6,23.8,,00.0,0631.6,30.9
2021-03-25T19:52:00Z,00000200,01000000,0004.64,0003.24,0001.97,0000.81,0000.34,0000.38,0003.57,0003.20,0002.51,16.6,23.7,,00.0,0631.6,30.9
2021-03-25T19:53:00Z,00000200,01000000,0004.90,0003.30,0001.64,0000.58,0000.64,0000.38,0002.83,0002.67,0001.83,16.6,23.7,,00.0,0631.5,30.9
2021-03-25T19:54:00Z,00000200,01000000,0005.06,0003.31,0001.77,0001.28,0000.60,0000.43,0002.89,0002.81,0002.12,16.6,23.7,,00.0,0631.5,30.9
2021-03-25T19:55:00Z,00000200,01000000,0004.37,0003.21,0001.70,0001.32,0000.65,0000.42,0002.99,0002.48,0002.22,16.7,23.8,,00.0,0631.5,30.9
2021-03-25T19:56:00Z,00000200,01000000,0004.41,0003.50,0001.79,0001.61,0000.63,0000.04,0003.08,0002.71,0002.48,16.8,23.8,,00.0,0631.5,30.9
2021-03-25T19:57:00Z,00000200,41000000,,,,,,,0002.11,0001.93,0001.21,16.9,23.8,,00.0,0631.6,30.9
2021-03-25T19:58:00Z,00000200,61000000,,,,,,,-000.84,-000.39,-000.39,16.6,24.0,,00.0,0630.6,31.0
2021-03-25T19:59:00Z,00000200,21000000,,,,,,,-000.07,-000.52,-000.26,16.5,24.1,,00.0,0630.6,30.9
